Weather History for Charleston, SC

Change the Weather History Date:

Saturday, January 19, 2013

  Actual Average (KCHS) Record (KCHS)
Temperature  
Mean Temperature 50 °F 48 °F  
Max Temperature 60 °F 59 °F 78 °F (1950)
Min Temperature 41 °F 37 °F 16 °F (1976)
Degree Days  
Heating Degree Days 14 17  
Month to date heating degree days 323  
Since 1 July heating degree days 1061  
Cooling Degree Days 0 0  
Month to date cooling degree days 0  
Year to date cooling degree days 0  
Moisture  
Dew Point 40 °F    
Average Humidity 69    
Maximum Humidity 93    
Minimum Humidity 44    
Precipitation  
Precipitation 0.00 in 0.12 in 2.27 in (1991)
Month to date precipitation 2.26  
Year to date precipitation 2.26  
Sea Level Pressure  
Sea Level Pressure 30.36 in    
Wind  
Wind Speed 6 mph (NNE)    
Max Wind Speed 12 mph    
Max Gust Speed -    
Visibility 10 miles    
Events      
T = Trace of Precipitation, MM = Missing Value Source: NWS Daily Summary

Daily Weather History Graph

Daily Weather History Graph

Search for Another Location

Airport:

Trip Planner

Search our weather history database for the weather conditions in past years. The results will help you decide how hot, cold, wet, or windy it might be!

Date:

Astronomy

Jan. 19, 2013 Rise Set
Actual Time 7:21 AM EST 5:40 PM EST
Civil Twilight 6:54 AM EST 6:07 PM EST
Nautical Twilight 6:24 AM EST 6:37 PM EST
Astronomical Twilight 5:55 AM EST 7:06 PM EST
Moon 12:02 PM EST 12:58 AM EST
Length of Visible Light 11h 12m
Length of Day
10h 19m
First Quarter, 57% of the Moon is Illuminated
Jan 19
First Quarter
Jan 26
Full
Feb 3
Last Quarter
Feb 10
New
Feb 17
First Quarter

Hourly Weather History & Observations

Time (EST) Temp. Windchill Dew Point Humidity Pressure Visibility Wind Dir Wind Speed Gust Speed Precip Events Conditions
12:15 AM 44.6 °F 40.7 °F 32.0 °F 61% 30.46 in 10.0 mi North 6.9 mph - 0.00 in   Overcast
12:35 AM 44.6 °F 40.7 °F 32.0 °F 61% 30.46 in 10.0 mi North 6.9 mph - 0.00 in   Mostly Cloudy
12:55 AM 44.6 °F 41.4 °F 32.0 °F 61% 30.46 in 10.0 mi North 5.8 mph - 0.00 in   Scattered Clouds
1:15 AM 44.6 °F 41.4 °F 32.0 °F 61% 30.46 in 10.0 mi NNW 5.8 mph - 0.00 in   Partly Cloudy
1:35 AM 44.6 °F 40.7 °F 32.0 °F 61% 30.46 in 10.0 mi North 6.9 mph - 0.00 in   Scattered Clouds
2:15 AM 44.6 °F 40.2 °F 33.8 °F 66% 30.45 in 10.0 mi North 8.1 mph - 0.00 in   Clear
2:35 AM 44.6 °F 39.7 °F 32.0 °F 61% 30.45 in 10.0 mi North 9.2 mph - 0.00 in   Clear
2:55 AM 44.6 °F 39.7 °F 32.0 °F 61% 30.44 in 10.0 mi North 9.2 mph - 0.00 in   Clear
3:15 AM 44.6 °F 39.7 °F 32.0 °F 61% 30.44 in 10.0 mi North 9.2 mph - 0.00 in   Clear
3:35 AM 44.6 °F 40.2 °F 32.0 °F 61% 30.44 in 10.0 mi NNE 8.1 mph - 0.00 in   Clear
3:55 AM 44.6 °F 39.7 °F 32.0 °F 61% 30.44 in 10.0 mi North 9.2 mph - 0.00 in   Clear
4:15 AM 42.8 °F 38.0 °F 32.0 °F 66% 30.43 in 10.0 mi North 8.1 mph - 0.00 in   Clear
4:35 AM 42.8 °F 41.1 °F 32.0 °F 66% 30.43 in 10.0 mi North 3.5 mph - 0.00 in   Clear
4:55 AM 42.8 °F 37.5 °F 32.0 °F 66% 30.43 in 10.0 mi North 9.2 mph - 0.00 in   Clear
5:15 AM 42.8 °F 38.0 °F 32.0 °F 66% 30.43 in 10.0 mi North 8.1 mph - 0.00 in   Clear
5:35 AM 42.8 °F 39.3 °F 32.0 °F 66% 30.43 in 10.0 mi North 5.8 mph - 0.00 in   Clear
6:15 AM 42.8 °F 38.6 °F 32.0 °F 66% 30.43 in 10.0 mi North 6.9 mph - 0.00 in   Clear
6:35 AM 41.0 °F 35.8 °F 32.0 °F 70% 30.44 in 10.0 mi North 8.1 mph - 0.00 in   Clear
6:55 AM 41.0 °F 38.0 °F 32.0 °F 70% 30.45 in 10.0 mi North 4.6 mph - 0.00 in   Clear
8:15 AM 42.8 °F 39.3 °F 32.0 °F 66% 30.44 in 10.0 mi North 5.8 mph - 0.00 in   Clear
8:35 AM 44.6 °F 40.2 °F 32.0 °F 61% 30.45 in 10.0 mi NNE 8.1 mph - 0.00 in   Clear
8:55 AM 46.4 °F 41.5 °F 32.0 °F 57% 30.45 in 10.0 mi North 10.4 mph - 0.00 in   Clear
9:15 AM 48.2 °F - 30.2 °F 50% 30.45 in 10.0 mi North 10.4 mph - 0.00 in   Clear
10:35 AM 53.6 °F - 32.0 °F 44% 30.47 in 10.0 mi North 9.2 mph - 0.00 in   Clear
10:55 AM 53.6 °F - 32.0 °F 44% 30.46 in 10.0 mi North 9.2 mph - 0.00 in   Clear
11:15 AM 55.4 °F - 33.8 °F 44% 30.45 in 10.0 mi NNE 8.1 mph - 0.00 in   Clear
11:35 AM 57.2 °F - 35.6 °F 44% 30.43 in 10.0 mi North 6.9 mph - 0.00 in   Clear
12:15 PM 59.0 °F - 39.2 °F 48% 30.40 in 10.0 mi NE 5.8 mph - 0.00 in   Clear
12:35 PM 59.0 °F - 42.8 °F 55% 30.38 in 10.0 mi NE 6.9 mph - 0.00 in   Clear
12:55 PM 59.0 °F - 41.0 °F 51% 30.36 in 10.0 mi NE 6.9 mph - 0.00 in   Mostly Cloudy
1:15 PM 60.8 °F - 41.0 °F 48% 30.35 in 10.0 mi NE 6.9 mph - 0.00 in   Mostly Cloudy
1:55 PM 60.8 °F - 42.8 °F 52% 30.33 in 10.0 mi ENE 4.6 mph - 0.00 in   Partly Cloudy
2:15 PM 60.8 °F - 44.6 °F 55% 30.32 in 10.0 mi East 8.1 mph - 0.00 in   Clear
2:35 PM 60.8 °F - 42.8 °F 52% 30.31 in 10.0 mi East 8.1 mph - 0.00 in   Clear
3:15 PM 59.0 °F - 44.6 °F 59% 30.30 in 10.0 mi ESE 6.9 mph - 0.00 in   Clear
3:35 PM 59.0 °F - 44.6 °F 59% 30.30 in 10.0 mi East 8.1 mph - 0.00 in   Clear
3:55 PM 59.0 °F - 44.6 °F 59% 30.29 in 10.0 mi East 6.9 mph - 0.00 in   Clear
4:15 PM 59.0 °F - 44.6 °F 59% 30.28 in 10.0 mi ENE 8.1 mph - 0.00 in   Clear
4:35 PM 59.0 °F - 46.4 °F 63% 30.27 in 10.0 mi East 11.5 mph - 0.00 in   Clear
4:55 PM 57.2 °F - 46.4 °F 67% 30.28 in 10.0 mi East 4.6 mph - 0.00 in   Clear
5:15 PM 55.4 °F - 48.2 °F 77% 30.28 in 10.0 mi ENE 5.8 mph - 0.00 in   Clear
5:35 PM 53.6 °F - 48.2 °F 82% 30.28 in 10.0 mi East 5.8 mph - 0.00 in   Clear
5:55 PM 53.6 °F - 46.4 °F 77% 30.28 in 10.0 mi Calm Calm - 0.00 in   Clear
6:15 PM 53.6 °F - 48.2 °F 82% 30.28 in 10.0 mi Calm Calm - 0.00 in   Partly Cloudy
6:35 PM 53.6 °F - 48.2 °F 82% 30.29 in 10.0 mi Calm Calm - 0.00 in   Mostly Cloudy
6:55 PM 51.8 °F - 48.2 °F 88% 30.28 in 10.0 mi Calm Calm - 0.00 in   Scattered Clouds
7:15 PM 51.8 °F - 48.2 °F 88% 30.29 in 10.0 mi Calm Calm - 0.00 in   Clear
7:35 PM 51.8 °F - 48.2 °F 88% 30.28 in 10.0 mi Calm Calm - 0.00 in   Clear
7:55 PM 51.8 °F - 48.2 °F 88% 30.28 in 10.0 mi Calm Calm - 0.00 in   Clear
8:15 PM 50.0 °F - 46.4 °F 87% 30.28 in 10.0 mi Calm Calm - 0.00 in   Clear
8:35 PM 48.2 °F - 46.4 °F 93% 30.28 in 10.0 mi Calm Calm - 0.00 in   Clear
8:55 PM 48.2 °F - 46.4 °F 93% 30.28 in 10.0 mi Calm Calm - 0.00 in   Clear
9:15 PM 48.2 °F - 44.6 °F 87% 30.27 in 10.0 mi Calm Calm - 0.00 in   Clear
9:35 PM 48.2 °F - 44.6 °F 87% 30.27 in 10.0 mi Calm Calm - 0.00 in   Clear
9:55 PM 46.4 °F - 44.6 °F 93% 30.27 in 8.0 mi Calm Calm - 0.00 in   Clear
10:15 PM 46.4 °F - 44.6 °F 93% 30.26 in 7.0 mi Calm Calm - 0.00 in   Clear
10:35 PM 48.2 °F - 44.6 °F 87% 30.26 in 9.0 mi Calm Calm - 0.00 in   Clear
10:55 PM 46.4 °F - 44.6 °F 93% 30.26 in 8.0 mi Calm Calm - 0.00 in   Clear
11:15 PM 48.2 °F - 46.4 °F 93% 30.25 in 5.0 mi Calm Calm - 0.00 in   Clear
11:35 PM 48.2 °F - 46.4 °F 93% 30.25 in 5.0 mi Calm Calm - 0.00 in   Clear
11:55 PM 48.2 °F - 46.4 °F 93% 30.24 in 5.0 mi Calm Calm - 0.00 in   Clear